TimeMST,TemperatureF,Dew PointF,Humidity,Sea Level PressureIn,VisibilityMPH,Wind Direction,Wind SpeedMPH,Gust SpeedMPH,PrecipitationIn,Events,Conditions,WindDirDegrees,DateUTC
12:52 AM,24.1,15.1,69,30.41,10.0,North,6.9,-,N/A,,Clear,10,2013-03-02 07:52:00
1:52 AM,17.1,12.9,84,30.43,10.0,West,5.8,-,N/A,,Clear,270,2013-03-02 08:52:00
2:52 AM,17.1,12.9,84,30.42,10.0,West,4.6,-,N/A,,Clear,260,2013-03-02 09:52:00
3:52 AM,14.0,10.9,88,30.43,10.0,WSW,4.6,-,N/A,,Clear,240,2013-03-02 10:52:00
4:52 AM,14.0,10.0,84,30.45,10.0,West,4.6,-,N/A,,Clear,260,2013-03-02 11:52:00
5:52 AM,15.1,10.9,84,30.48,10.0,SW,5.8,-,N/A,,Clear,220,2013-03-02 12:52:00
6:52 AM,12.0,8.1,84,30.52,10.0,Calm,Calm,-,N/A,,Clear,0,2013-03-02 13:52:00
7:52 AM,19.9,14.0,78,30.51,10.0,WSW,3.5,-,N/A,,Clear,240,2013-03-02 14:52:00
8:52 AM,28.0,18.0,66,30.51,10.0,South,4.6,-,N/A,,Clear,190,2013-03-02 15:52:00
9:52 AM,33.1,18.0,54,30.47,10.0,Calm,Calm,-,N/A,,Clear,0,2013-03-02 16:52:00
10:52 AM,39.0,18.0,43,30.41,10.0,WNW,3.5,-,N/A,,Clear,290,2013-03-02 17:52:00
11:52 AM,42.1,16.0,35,30.39,10.0,Calm,Calm,-,N/A,,Clear,0,2013-03-02 18:52:00
12:52 PM,44.1,16.0,32,30.35,10.0,ESE,3.5,-,N/A,,Clear,110,2013-03-02 19:52:00
1:52 PM,48.0,16.0,28,30.33,10.0,South,4.6,-,N/A,,Clear,170,2013-03-02 20:52:00
2:52 PM,50.0,18.0,28,30.30,10.0,WSW,4.6,-,N/A,,Clear,250,2013-03-02 21:52:00
3:52 PM,48.2,21.2,34,30.29,10.0,West,8.1,-,N/A,,Clear,270,2013-03-02 22:52:00
4:52 PM,48.9,19.9,32,30.29,10.0,West,10.4,-,N/A,,Clear,270,2013-03-02 23:52:00
5:52 PM,44.1,21.0,40,30.31,10.0,West,5.8,-,N/A,,Clear,260,2013-03-03 00:52:00
6:52 PM,37.0,21.9,54,30.35,10.0,West,6.9,-,N/A,,Clear,280,2013-03-03 01:52:00
7:52 PM,33.1,21.9,64,30.33,10.0,WNW,6.9,-,N/A,,Clear,290,2013-03-03 02:52:00
8:52 PM,30.0,21.0,69,30.32,10.0,SW,4.6,-,N/A,,Clear,220,2013-03-03 03:52:00
9:52 PM,23.0,17.6,80,30.26,10.0,South,5.8,-,N/A,,Clear,180,2013-03-03 04:52:00
11:52 PM,25.0,21.0,85,30.22,10.0,West,3.5,-,N/A,,Clear,260,2013-03-03 06:52:00